Location: Unspecified
(51.5147°N, 7.4673°E)
Time: 18:23:07
(UTC+01:00)

Vanguard 1 - Pass Details

Date: 20 February 2026
Orbit: 653 x 3818 km, 34.2° (Epoch: 5 March)

Event Time Altitude Azimuth Distance (km) Brightness Sun altitude
Rises 21:37:27 0° 272° (W) 6,567 15.1 -34.4°
Reaches altitude 10° 21:42:51 10° 260° (W) 5,997 14.5 -35.1°
Maximum altitude 21:56:08 23° 218° (SW) 5,672 13.8 -36.9°
Enters shadow 22:08:56 13° 181° (S) 6,608 13.9 -38.5°
